SL-6 R/B(2)

Last updated on Thu Sep 10 2026 00:02:07 GMT+0000 (Coordinated Universal Time)

1 20666U 90055D 26252.54694133 .00000966 00000+0 81819-4 0 9992 2 20666 62.7834 348.2431 0053783 16.0401 344.2386 15.04265882965848
UTC large
Height (km)
Speed (km/s)
/
Latitude / Longitude
Inclination (degrees)
Orbital Period (minutes)
Azimuth
Elevation
Range (km)
Doppler Factor

Next 0 passes for location: London (51.5072 / 0.1276)

No passes found over London.
SL-6 R/B(2)